Showing default

KINEIS-4A, 63303

Orbit data source: Space-Track

KINEIS-4A, 63303 is a French payload satellite in SSO that was launched on Tue, 18 Mar 2025 UTC via an ELECTRON launch vehicle from the Rocket Lab Launch Complex (RLLC). Payload-class satellites include a variety of spacecraft equipped with specific instruments for various scientific and technological missions. These include communications satellites like Starlink; space stations such as the ISS; scientific satellites like the Hubble; Earth observation satellites from companies like Planet Labs, Umbra, and HawkEye 360; GPS; miniature CubeSats for education and research; and military/defense satellites.

Loading next visibility...
Identifier
63303, 2025-056D
Orbit
SSO
Last TLE update
7 hours ago
Origin
Manufacturer
KINEIS
Mission
Operational Commercial Communications
Bus & Motor
CUBESAT 16U, Unknown motor
Mass
28 kg wet, 28 kg dry
Launch date (UTC)
2025-03-18 (4 months ago)
Launch vehicle
ELECTRON
Launch site
Rocket Lab Launch Complex (RLLC)
Object type
Payload
Rocket body
Debris
Shape & HBR
Box + 2 Pan + 1 Ant, 1.6 m
Radar Cross Section
0.229 m², Medium (>0.1 m² and < 1m²)

Expand to show TLE details & history

TLE from 7 hours ago
0 KINEIS-4A
1 63303U 25056D   25191.72796099  .00001106  00000-0  18250-3 0  9997
2 63303  97.9849 317.0660 0001456 336.5577  23.5564 14.72364480 16885
Epoch: 2025-07-10T17:28Z
TLE epoch observation values (Epoch: 2025-07-10T17:28:15.829Z)
Latitude
-0.00002°
Longitude
126.10997°
Altitude
655.6 km
Speed
7.53 km/s
True Right ascension
21h 08m 15s
True Declination
0° 00' 00"
Sunlit
Object was in full shadow at epoch
Visualization orbit readout
Latitude
6.43774°
Longitude
-52.68891°
Altitude
656.905 km
Speed
7.529 km/s
Apparent Right ascension
06h 19m 12s
Apparent Declination
-28° 41' 15"
Sunlit
Object is in daylight
Visualization observer readout
Local Sidereal Time
13:03:06
Azimuth
253.139° W
Elevation
-25.856°
Doppler factor
1
Orbital elements
Apogee altitude
651.608 km
Perigee altitude
649.561 km
Semi-major axis
7,028.722 km
Eccentricity
0.00015
Inclination
97.9849°
RAAN
317.066°
Arg. of periapsis
336.5577°
True anomaly
Unknown
Mean anomaly
23.5564°
Eccentric anomaly
Unknown
Mean motion
3.68323 °/min
Orbital period
97.74 mins
BSTAR
0.0001825
Loading maneuver chart data...
Loading SW <> Apogee altitude chart data...
Loading historical data...
Loading historical data...
Loading historical data...
Loading historical data...
Loading historical data...
Loading historical data...
Loading historical data...

KINEIS-4A Visibility forecast

Observer location: undefined°, undefined°

Span
Click to sort rows by Start time (UTC) header in descending order
Start Az.
Max El. time (UTC)
Max El. Az.
Max El.
End time (UTC)
End Az.
8 mins2025-07-11 08:15:49.165Z160.885° S2025-07-11 08:19:49.165Z109.663° ESE44.012°2025-07-11 08:23:49.165Z351.016° N
4 mins2025-07-11 20:10:49.165Z67.206° ENE2025-07-11 20:12:49.165Z98.789° ESE16.082°2025-07-11 20:14:49.165Z127.542° SE
6 mins2025-07-11 21:46:49.165Z348.221° N2025-07-11 21:49:49.165Z272.336° WNW33.57°2025-07-11 21:52:49.165Z221.506° SW
|